# Land Stadt Wetter Temperatur Luftdruck Luftfeuchtigkeit Sichtweite Windgeschwindigkeit Windrichtung Ortszeit
1 ad Andorra la Vella Rain 9 1005 96 0 4 273 02.08.2018 14:22
2 ae Dubai Clear 38 1000 39 8000 11 210 02.08.2018 14:21
3 af Kabul Clear 30 1016 9 10000 18 350 02.08.2018 14:21
4 ar Buenos Aires Clouds 14 1014 93 10000 4 0 02.08.2018 14:22
5 ar Esquel Clouds 3 1013 93 10000 8 300 02.08.2018 14:22
6 ar Ushuaia Clouds 6 980 52 10000 24 360 02.08.2018 14:22
7 at Innsbruck Clouds 13 1006 77 10000 5 100 02.08.2018 14:23
8 at Wien Clouds 22 1006 68 10000 5 0 02.08.2018 14:22
9 au Alice Springs Clear 14 1020 27 10000 17 120 02.08.2018 14:21
10 au Darwin Clouds 31 1009 48 10000 17 20 02.08.2018 14:22
11 au Perth Clouds 23 1018 46 10000 13 110 02.08.2018 14:21
12 au Sydney Rain 12 1023 93 10000 21 220 02.08.2018 14:22
13 bg Sofia Clouds 20 1010 56 10000 8 290 02.08.2018 14:21
14 bg Warna Clouds 24 1007 64 10000 11 60 02.08.2018 14:21
15 bo La Paz Clouds 4 1041 100 10000 5 50 02.08.2018 14:22
16 bo Potisi Clouds 1 1022 85 0 7 282 02.08.2018 14:22
17 br Manaus Clouds 24 1013 100 10000 8 280 02.08.2018 14:21
18 br Rio de Janeiro Clouds 24 1017 69 10000 11 230 02.08.2018 14:22
19 bs Nassau Clouds 27 1016 88 10000 22 150 02.08.2018 14:22
20 ca Montreal Clear 12 1012 81 14484 9 350 02.08.2018 14:22
21 cd Kisangani Clouds 30 1013 57 0 3 13 02.08.2018 14:23
22 ch Andermatt Rain 6 1015 93 0 1 331 02.08.2018 14:23
23 ch Bern Rain 11 1009 87 10000 5 6 02.08.2018 14:23
24 ck Avarua Clear 19 1017 82 10000 2 170 02.08.2018 14:22
25 cl Santiago Fog 5 1019 100 1200 2 0 02.08.2018 14:23
26 cn Lhasa Clouds 21 1004 24 0 9 220 02.08.2018 14:22
27 cn Peking Clouds 37 995 35 0 2 180 02.08.2018 14:23
28 cn Shanghai Clouds 28 1009 54 10000 22 150 02.08.2018 14:21
29 de Berlin Clouds 15 1006 76 10000 11 170 02.08.2018 14:21
30 de Braunschweig Clouds 17 1005 48 10000 22 240 02.08.2018 14:21
31 de Bremen Clouds 15 1003 58 10000 24 200 02.08.2018 14:22
32 de Dresden Rain 15 1008 72 10000 9 250 02.08.2018 14:22
33 de Emden Rain 13 1000 81 0 19 338 02.08.2018 14:21
34 de Flensburg Clouds 14 1001 54 10000 24 210 02.08.2018 14:21
35 de Frankfurt Clouds 16 1007 51 10000 15 240 02.08.2018 14:22
36 de Freiburg Clouds 13 1007 82 0 6 266 02.08.2018 14:22
37 de Hamburg Clouds 14 1003 58 10000 26 190 02.08.2018 14:21
38 de Hannover Clouds 15 1004 54 10000 13 210 02.08.2018 14:21
39 de Helgoland Clouds 14 1002 58 10000 21 210 02.08.2018 14:22
40 de Hiddensee Rain 15 1010 76 0 3 202 02.08.2018 14:21
41 de Kassel Clouds 14 1005 47 10000 24 210 02.08.2018 14:21
42 de Köln Clouds 14 1006 58 10000 21 240 02.08.2018 14:21
43 de Magdeburg Clouds 15 1007 80 0 5 244 02.08.2018 14:22
44 de München Rain 13 1008 96 0 18 348 02.08.2018 14:21
45 de Nürnberg Rain 12 1008 87 10000 4 0 02.08.2018 14:21
46 de Oberstdorf Rain 10 1008 98 0 2 273 02.08.2018 14:21
47 de Stuttgart Clouds 12 1008 87 10000 5 200 02.08.2018 14:22
48 de Torfhaus Rain 15 1003 62 0 5 270 02.08.2018 14:22
49 de Trier Clouds 12 1007 66 10000 13 210 02.08.2018 14:21
50 do Santo Domingo Clouds 26 1019 100 0 7 355 02.08.2018 14:21
51 ec San Cristobal Clouds 23 1014 82 0 16 149 02.08.2018 14:22
52 eg Kairo Clear 34 1008 16 10000 13 30 02.08.2018 14:22
53 es Barcelona Rain 19 1007 72 10000 17 50 02.08.2018 14:22
54 es Las Palmas de Gran Canaria Clouds 23 1017 69 10000 17 10 02.08.2018 14:21
55 es Madrid Clouds 18 1010 63 10000 9 250 02.08.2018 14:23
56 es Palma de Mallorca Rain 22 1006 78 10000 4 250 02.08.2018 14:22
57 es Sevilla Clouds 20 1012 63 10000 9 270 02.08.2018 14:22
58 es Tarifa Clouds 21 1013 73 10000 11 260 02.08.2018 14:21
59 et Addis Abeba Clouds 16 1016 75 0 10 116 02.08.2018 14:23
60 fi Helsinki Clouds 15 1010 58 10000 26 180 02.08.2018 14:21
61 fi Rovaniemi Rain 8 996 93 10000 28 170 02.08.2018 14:21
62 fj Suva Clouds 25 1013 94 10000 12 80 02.08.2018 14:21
63 fr Bordeaux Clouds 15 1012 58 10000 4 0 02.08.2018 14:21
64 fr Nizza Clouds 18 1006 93 10000 4 0 02.08.2018 14:22
65 fr Paris Clouds 13 1008 76 10000 9 280 02.08.2018 14:22
66 gb Glasgow Clouds 14 1009 67 10000 4 0 02.08.2018 14:21
67 gb London Clouds 12 1007 81 10000 15 250 02.08.2018 14:22
68 gb Manchester Clouds 12 1007 93 10000 9 290 02.08.2018 14:21
69 gl Nuuk Snow 6 1000 93 0 31 180 02.08.2018 14:22
70 gr Athen Clouds 24 1008 50 10000 6 252 02.08.2018 14:22
71 id Jakarta Clouds 33 1006 49 6000 15 60 02.08.2018 14:22
72 ie Dublin Clouds 10 1010 81 10000 22 310 02.08.2018 14:21
73 in Jagatsukh Rain 22 1010 42 0 13 200 02.08.2018 14:22
74 in Mumbai Haze 32 1006 70 5000 18 190 02.08.2018 14:22
75 in Nagpur Haze 34 1004 46 5000 9 260 02.08.2018 14:21
76 iq Bagdad Clear 37 1007 18 10000 18 340 02.08.2018 14:22
77 is Reykjavik Clouds 9 1014 52 10000 4 200 02.08.2018 14:22
78 it Mailand Rain 18 1005 77 10000 15 110 02.08.2018 14:21
79 it Palermo Clouds 24 996 61 0 5 224 02.08.2018 14:22
80 it Rom Clouds 22 1010 64 10000 9 140 02.08.2018 14:23
81 jp Nagasaki Clouds 29 1008 51 10000 17 340 02.08.2018 14:21
82 jp Tokio Clouds 26 1009 50 10000 17 120 02.08.2018 14:22
83 ke Nairobi Clouds 19 1024 72 10000 6 154 02.08.2018 14:22
84 kr Seoul Clear 29 1010 57 10000 17 250 02.08.2018 14:21
85 ma Casablanca Clouds 21 1015 77 10000 18 220 02.08.2018 14:23
86 ma Marrakesch Clouds 21 1018 68 10000 5 0 02.08.2018 14:23
87 mg Antananarivo Clouds 19 1025 59 10000 21 130 02.08.2018 14:21
88 mn Ulaanbaatar Clouds 19 1004 20 10000 14 350 02.08.2018 14:23
89 mn Uliastai Snow 6 1011 68 0 10 235 02.08.2018 14:23
90 mv Male Clouds 30 1009 79 10000 18 210 02.08.2018 14:23
91 mx Mexiko Stadt Clouds 18 1025 63 16093 11 130 02.08.2018 14:21
92 mx Veracruz Clouds 26 1008 75 0 5 216 02.08.2018 14:21
93 no Hammerfest Rain 13 991 76 10000 59 140 02.08.2018 14:22
94 no Oslo Rain 10 976 90 0 5 177 02.08.2018 14:23
95 nz Wellington Clear 9 1014 76 10000 11 340 02.08.2018 14:23
96 pe Cusco Clear 6 1023 74 0 2 255 02.08.2018 14:23
97 pg Port Moresby Haze 29 1006 79 10000 18 140 02.08.2018 14:21
98 ph Manila Rain 36 1005 52 10000 11 140 02.08.2018 14:21
99 pt Lissabon Clouds 17 1013 77 10000 13 300 02.08.2018 14:22
100 qa Doha Clear 43 1000 11 10000 44 340 02.08.2018 14:23
101 ru Amderma Clouds 10 1013 79 0 6 344 02.08.2018 14:23
102 ru Anadyr Clear 15 1016 51 10000 18 160 02.08.2018 14:23
103 ru Jakutsk Clouds 20 1008 37 10000 14 90 02.08.2018 14:22
104 ru Moskau Clouds 23 1016 78 10000 4 0 02.08.2018 14:22
105 ru Surgut Clouds 27 1019 30 10000 18 260 02.08.2018 14:23
106 ru Werchojansk Clear 24 1009 20 0 12 98 02.08.2018 14:22
107 sa Riad Clear 38 1011 11 10000 15 40 02.08.2018 14:21
108 sb Honiara Rain 26 1009 88 10000 11 140 02.08.2018 14:22
109 se Stockholm Clear 16 1005 58 10000 22 190 02.08.2018 14:23
110 th Bangkok Clouds 36 1005 42 0 20 192 02.08.2018 14:21
111 tr Alanya Clear 29 1012 30 6000 9 230 02.08.2018 14:22
112 tr Ankara Clear 27 1013 26 10000 11 90 02.08.2018 14:23
113 tr Istanbul Clear 24 1009 64 10000 15 220 02.08.2018 14:23
114 ua Kiew Clouds 25 1014 41 10000 11 190 02.08.2018 14:21
115 us Chicago Clouds 15 1018 67 16093 13 40 02.08.2018 14:23
116 us Death Valley Clear 25 1006 19 0 10 170 02.08.2018 14:22
117 us Denver Clear 12 996 79 0 5 217 02.08.2018 14:21
118 us Fairbanks Clouds 12 1007 76 16093 11 49 02.08.2018 14:23
119 us Honolulu Rain 24 1020 69 16093 18 70 02.08.2018 14:22
120 us Las Vegas Clear 20 1005 30 16093 22 190 02.08.2018 14:21
121 us Los Angeles Clear 16 1013 77 16093 6 126 02.08.2018 14:22
122 us Miami Clouds 28 1014 88 16093 17 150 02.08.2018 14:23
123 us New York Clear 20 1010 49 16093 8 0 02.08.2018 14:22
124 us Nome Clear 14 1012 44 16093 17 360 02.08.2018 14:23
125 us Tucson Clear 23 1010 26 16093 11 200 02.08.2018 14:21
126 uy Montevideo Clouds 14 1013 93 10000 5 270 02.08.2018 14:22
127 vn Hanoi Clouds 37 999 44 10000 17 270 02.08.2018 14:21
128 za Kapstadt Fog 14 1020 93 500 4 60 02.08.2018 14:22